フルス彗星

C/2023 U1 ( Fuls )

English version
Home page
Updated on January 31, 2024

---------------------------------------------------------------------

・ プロフィール

発見日 2023年10月16日
発見光度 19.3等
発見者 David Carson Fuls (Mt. Lemmon Survey)

・ 写真集

・ 軌道要素

Epoch 2023 Sept. 13.0 TT = JDT 2460200.5
T 2024 Oct. 12.46415 TT                                 Rudenko
q   4.9735091            (2000.0)            P               Q
z  +0.0004516      Peri.  255.58866     +0.09904426     +0.62961785
 +/-0.0000200      Node   305.81401     +0.71324713     -0.58489560
e   0.9977541      Incl.  108.15159     -0.69387951     -0.51134969
>From 69 observations 2023 Oct. 16-2024 Jan. 21, mean residual 0".6.

・ 光度変化

        m1 = 8.0 + 5 logΔ + 10.0 log r

---------------------------------------------------------------------

軌道要素はM.P.E.C. 2024-B140に掲載されたものです。
光度グラフはComet for Windowsで作成したものです。

---------------------------------------------------------------------

Copyright(C) Seiichi Yoshida (comet@aerith.net). All rights reserved.